GW6832 Weather Reports


time (UTC)temp
F
wind
direction
speed
knots
gust
knots
rain 1hr
in
rain 24hr
in
rain mn
in
humidity
%
barometer
mb
20260504201526 85 351 3.5 9.6 0.00 0.00 0.00 27 1015.1
20260504200018 84 344 0.9 7.0 0.00 0.00 0.00 28 1015.2
20260504194503 85 342 4.3 9.6 0.00 0.00 0.00 27 1015.5
20260504193003 84 359 1.7 7.8 0.00 0.00 0.00 28 1015.7
20260504191510 84 338 0.9 6.1 0.00 0.00 0.00 31 1016.0
20260504190014 83 321 2.6 7.0 0.00 0.00 0.00 29 1016.0
20260504184518 83 334 3.5 7.8 0.00 0.00 0.00 29 1016.2
20260504183008 83 347 3.5 7.8 0.00 0.00 0.00 32 1016.6
20260504181507 83 323 2.6 6.1 0.00 0.00 0.00 29 1017.0
20260504180011 82 8 3.5 7.0 0.00 0.00 0.00 32 1017.1
20260504174518 81 356 3.5 8.7 0.00 0.00 0.00 34 1017.4
20260504173023 81 352 4.3 9.6 0.00 0.00 0.00 34 1017.7
20260504171505 81 354 1.7 8.7 0.00 0.00 0.00 35 1017.6
20260504081508 59 338 0.0 0.9 0.00 0.00 0.00 83 1017.3
20260504050007 62 337 0.0 0.9 0.00 0.00 0.00 76 1018.7
20260504044517 62 347 0.0 0.9 0.00 0.00 0.00 76 1018.7
20260504043019 62 347 0.0 0.9 0.00 0.00 0.00 75 1018.9
20260504041538 62 347 0.0 0.9 0.00 0.00 0.00 75 1018.9
20260504040006 62 344 0.0 0.9 0.00 0.00 0.00 74 1019.1
20260504034512 63 344 0.0 0.9 0.00 0.00 0.00 72 1019.1
20260504033019 64 344 0.0 0.9 0.00 0.00 0.00 70 1019.0
20260504031522 65 340 0.0 0.9 0.00 0.00 0.00 68 1018.9
20260504030027 65 344 0.0 0.9 0.00 0.00 0.00 66 1018.8
20260504024510 66 343 0.0 0.9 0.00 0.00 0.00 64 1018.6
20260504023014 67 345 0.9 1.7 0.00 0.00 0.00 61 1018.5
20260504021521 68 340 0.9 1.7 0.00 0.00 0.00 60 1018.4
20260504020034 69 338 0.9 2.6 0.00 0.00 0.00 59 1018.2
20260504014530 69 336 0.9 4.3 0.00 0.00 0.00 57 1017.9
20260504013012 70 337 0.9 3.5 0.00 0.00 0.00 56 1017.7
20260504011517 70 345 0.9 3.5 0.00 0.00 0.00 55 1017.3
20260504010022 71 338 0.9 3.5 0.00 0.00 0.00 54 1016.9
20260504004528 71 350 0.0 0.9 0.00 0.00 0.00 56 1016.7
20260504003028 72 333 0.0 2.6 0.00 0.00 0.00 53 1016.7
20260504001522 72 354 0.0 2.6 0.00 0.00 0.00 53 1016.8
20260504000020 74 333 0.0 4.3 0.00 0.00 0.00 50 1016.5
20260503234524 75 342 0.0 5.2 0.00 0.00 0.00 48 1016.6
20260503233026 77 277 0.9 4.3 0.00 0.00 0.00 43 1016.4
20260503231513 77 333 0.9 3.5 0.00 0.00 0.00 38 1016.4
20260503230034 78 345 0.0 1.7 0.00 0.00 0.00 37 1016.2
20260503224522 79 342 0.0 1.7 0.00 0.00 0.00 34 1016.3
20260503223004 80 319 0.9 5.2 0.00 0.00 0.00 33 1016.1
20260503221511 81 14 1.7 4.3 0.00 0.00 0.00 35 1016.2
20260503220018 81 359 0.9 5.2 0.00 0.00 0.00 32 1016.4
20260503214535 81 333 0.9 4.3 0.00 0.00 0.00 33 1016.4
20260503213023 80 349 2.6 6.1 0.00 0.00 0.00 33 1016.4
20260503211507 81 4 2.6 6.1 0.00 0.00 0.00 34 1016.3
20260503210014 80 353 0.9 6.1 0.00 0.00 0.00 34 1016.3
20260503204519 80 347 2.6 7.0 0.00 0.00 0.00 35 1016.3
20260503203032 81 357 2.6 8.7 0.00 0.00 0.00 35 1016.5